Time,TemperatureF,DewpointF,PressureIn,WindDirection,WindDirectionDegrees,WindSpeedMPH,WindSpeedGustMPH,Humidity,HourlyPrecipIn,Conditions,Clouds,dailyrainin,SolarRadiationWatts/m^2,SoftwareType,DateUTC
2013-06-18 00:02:00,51.0,37.0,-100.00,NE,36,4.0,11.0,59,0.00,,,0.02,0.000000,,2013-06-18 05:02:00,
2013-06-18 00:34:00,50.0,36.0,-100.00,NE,36,7.0,12.0,58,0.00,,,0.02,0.000000,,2013-06-18 05:34:00,
2013-06-18 00:43:00,50.0,36.0,-100.00,NE,36,7.0,12.0,58,0.00,,,0.02,0.000000,,2013-06-18 05:43:00,
2013-06-18 00:53:00,50.0,36.0,-100.00,NE,36,7.0,12.0,58,0.00,,,0.02,0.000000,,2013-06-18 05:53:00,
2013-06-18 01:02:00,50.0,36.0,-100.00,NE,36,7.0,12.0,58,0.00,,,0.02,0.000000,,2013-06-18 06:02:00,
2013-06-18 01:33:00,49.0,38.0,-100.00,NNE,26,3.0,10.0,65,0.00,,,0.02,0.000000,,2013-06-18 06:33:00,
2013-06-18 01:43:00,49.0,38.0,-100.00,NNE,26,3.0,10.0,65,0.00,,,0.02,0.000000,,2013-06-18 06:43:00,
2013-06-18 01:53:00,49.0,38.0,-100.00,NNE,26,3.0,10.0,65,0.00,,,0.02,0.000000,,2013-06-18 06:53:00,
2013-06-18 02:02:00,49.0,38.0,-100.00,NNE,26,3.0,10.0,65,0.00,,,0.02,0.000000,,2013-06-18 07:02:00,
2013-06-18 02:33:00,47.0,37.0,-100.00,NE,43,6.0,10.0,69,0.00,,,0.02,0.000000,,2013-06-18 07:33:00,
2013-06-18 02:43:00,47.0,37.0,-100.00,NE,43,6.0,10.0,69,0.00,,,0.02,0.000000,,2013-06-18 07:43:00,
2013-06-18 02:53:00,47.0,37.0,-100.00,NE,43,6.0,10.0,69,0.00,,,0.02,0.000000,,2013-06-18 07:53:00,
2013-06-18 03:02:00,47.0,37.0,-100.00,NE,43,6.0,10.0,69,0.00,,,0.02,0.000000,,2013-06-18 08:02:00,
2013-06-18 03:33:00,46.0,38.0,-100.00,NNE,31,4.0,9.0,74,0.00,,,0.02,0.000000,,2013-06-18 08:33:00,
2013-06-18 03:43:00,46.0,38.0,-100.00,NNE,31,4.0,9.0,74,0.00,,,0.02,0.000000,,2013-06-18 08:43:00,
2013-06-18 03:52:00,46.0,38.0,-100.00,NNE,31,4.0,9.0,74,0.00,,,0.02,0.000000,,2013-06-18 08:52:00,
2013-06-18 04:02:00,46.0,38.0,-100.00,NNE,31,4.0,9.0,74,0.00,,,0.02,0.000000,,2013-06-18 09:02:00,
2013-06-18 04:34:00,44.0,38.0,-100.00,NE,44,4.0,8.0,80,0.00,,,0.02,0.000000,,2013-06-18 09:34:00,
2013-06-18 04:43:00,44.0,38.0,-100.00,NE,44,4.0,8.0,80,0.00,,,0.02,0.000000,,2013-06-18 09:43:00,
2013-06-18 04:53:00,44.0,38.0,-100.00,NE,44,4.0,8.0,80,0.00,,,0.02,0.000000,,2013-06-18 09:53:00,
2013-06-18 05:02:00,44.0,38.0,-100.00,NE,44,4.0,8.0,80,0.00,,,0.02,0.000000,,2013-06-18 10:02:00,
2013-06-18 05:33:00,43.0,39.0,-100.00,NNE,26,3.0,6.0,85,0.00,,,0.02,0.000000,,2013-06-18 10:33:00,
2013-06-18 05:43:00,43.0,39.0,-100.00,NNE,26,3.0,6.0,85,0.00,,,0.02,0.000000,,2013-06-18 10:43:00,
2013-06-18 05:53:00,43.0,39.0,-100.00,NNE,26,3.0,6.0,85,0.00,,,0.02,0.000000,,2013-06-18 10:53:00,
2013-06-18 06:02:00,43.0,39.0,-100.00,NNE,26,3.0,6.0,85,0.00,,,0.02,0.000000,,2013-06-18 11:02:00,
2013-06-18 06:32:00,44.0,39.0,-100.00,NNE,32,4.0,8.0,81,0.00,,,0.02,14.000000,,2013-06-18 11:32:00,
2013-06-18 06:43:00,44.0,39.0,-100.00,NNE,32,4.0,8.0,81,0.00,,,0.02,14.000000,,2013-06-18 11:43:00,
2013-06-18 06:52:00,44.0,39.0,-100.00,NNE,32,4.0,8.0,81,0.00,,,0.02,14.000000,,2013-06-18 11:52:00,
2013-06-18 07:01:00,44.0,39.0,-100.00,NNE,32,4.0,8.0,81,0.00,,,0.02,14.000000,,2013-06-18 12:01:00,
2013-06-18 07:33:00,49.0,40.0,-100.00,NE,50,5.0,11.0,72,0.00,,,0.02,156.000000,,2013-06-18 12:33:00,
2013-06-18 07:43:00,49.0,40.0,-100.00,NE,50,5.0,11.0,72,0.00,,,0.02,156.000000,,2013-06-18 12:43:00,
2013-06-18 07:52:00,49.0,40.0,-100.00,NE,50,5.0,11.0,72,0.00,,,0.02,156.000000,,2013-06-18 12:52:00,
2013-06-18 08:02:00,49.0,40.0,-100.00,NE,50,5.0,11.0,72,0.00,,,0.02,156.000000,,2013-06-18 13:02:00,
2013-06-18 08:34:00,54.0,43.0,-100.00,ENE,59,6.0,12.0,65,0.00,,,0.02,346.000000,,2013-06-18 13:34:00,
2013-06-18 08:43:00,54.0,43.0,-100.00,ENE,59,6.0,12.0,65,0.00,,,0.02,346.000000,,2013-06-18 13:43:00,
2013-06-18 08:53:00,54.0,43.0,-100.00,ENE,59,6.0,12.0,65,0.00,,,0.02,346.000000,,2013-06-18 13:53:00,
2013-06-18 09:02:00,54.0,43.0,-100.00,ENE,59,6.0,12.0,65,0.00,,,0.02,346.000000,,2013-06-18 14:02:00,
2013-06-18 09:33:00,58.0,43.0,-100.00,East,79,9.0,13.0,57,0.00,,,0.02,546.000000,,2013-06-18 14:33:00,
2013-06-18 09:43:00,58.0,43.0,-100.00,East,79,9.0,13.0,57,0.00,,,0.02,546.000000,,2013-06-18 14:43:00,
2013-06-18 09:53:00,58.0,43.0,-100.00,East,79,9.0,13.0,57,0.00,,,0.02,546.000000,,2013-06-18 14:53:00,
2013-06-18 10:02:00,58.0,43.0,-100.00,East,79,9.0,13.0,57,0.00,,,0.02,546.000000,,2013-06-18 15:02:00,
2013-06-18 10:33:00,63.0,47.0,-100.00,East,92,9.0,13.0,55,0.00,,,0.02,727.000000,,2013-06-18 15:33:00,
2013-06-18 10:43:00,63.0,47.0,-100.00,East,92,9.0,13.0,55,0.00,,,0.02,727.000000,,2013-06-18 15:43:00,
2013-06-18 10:53:00,63.0,47.0,-100.00,East,92,9.0,13.0,55,0.00,,,0.02,727.000000,,2013-06-18 15:53:00,
2013-06-18 11:01:00,63.0,47.0,-100.00,East,92,9.0,13.0,55,0.00,,,0.02,727.000000,,2013-06-18 16:01:00,
2013-06-18 11:33:00,66.0,46.0,-100.00,ENE,62,8.0,15.0,49,0.00,,,0.02,881.000000,,2013-06-18 16:33:00,
2013-06-18 11:43:00,66.0,46.0,-100.00,ENE,62,8.0,15.0,49,0.00,,,0.02,881.000000,,2013-06-18 16:43:00,
2013-06-18 11:53:00,66.0,46.0,-100.00,ENE,62,8.0,15.0,49,0.00,,,0.02,881.000000,,2013-06-18 16:53:00,
2013-06-18 12:02:00,66.0,46.0,-100.00,ENE,62,8.0,15.0,49,0.00,,,0.02,881.000000,,2013-06-18 17:02:00,
2013-06-18 12:34:00,68.0,46.0,-100.00,ENE,78,7.0,13.0,46,0.00,,,0.02,962.000000,,2013-06-18 17:34:00,
2013-06-18 12:43:00,68.0,46.0,-100.00,ENE,78,7.0,13.0,46,0.00,,,0.02,962.000000,,2013-06-18 17:43:00,
2013-06-18 12:53:00,68.0,46.0,-100.00,ENE,78,7.0,13.0,46,0.00,,,0.02,962.000000,,2013-06-18 17:53:00,
2013-06-18 13:02:00,68.0,46.0,-100.00,ENE,78,7.0,13.0,46,0.00,,,0.02,962.000000,,2013-06-18 18:02:00,
2013-06-18 13:33:00,71.0,48.0,-100.00,SE,126,7.0,12.0,44,0.00,,,0.02,1048.000000,,2013-06-18 18:33:00,
2013-06-18 13:43:00,71.0,48.0,-100.00,SE,126,7.0,12.0,44,0.00,,,0.02,1048.000000,,2013-06-18 18:43:00,
2013-06-18 13:53:00,71.0,48.0,-100.00,SE,126,7.0,12.0,44,0.00,,,0.02,1048.000000,,2013-06-18 18:53:00,
2013-06-18 14:02:00,71.0,48.0,-100.00,SE,126,7.0,12.0,44,0.00,,,0.02,1048.000000,,2013-06-18 19:02:00,
2013-06-18 14:33:00,72.0,50.0,-100.00,ENE,78,6.0,12.0,46,0.00,,,0.00,1052.000000,,2013-06-18 19:33:00,
2013-06-18 14:43:00,72.0,50.0,-100.00,ENE,78,6.0,12.0,46,0.00,,,0.00,1052.000000,,2013-06-18 19:43:00,
2013-06-18 14:53:00,72.0,50.0,-100.00,ENE,78,6.0,12.0,46,0.00,,,0.00,1052.000000,,2013-06-18 19:53:00,
2013-06-18 15:02:00,72.0,50.0,-100.00,ENE,78,6.0,12.0,46,0.00,,,0.00,1052.000000,,2013-06-18 20:02:00,
2013-06-18 15:33:00,74.0,49.0,-100.00,SE,128,5.0,12.0,42,0.00,,,0.00,1016.000000,,2013-06-18 20:33:00,
2013-06-18 15:43:00,74.0,49.0,-100.00,SE,128,5.0,12.0,42,0.00,,,0.00,1016.000000,,2013-06-18 20:43:00,
2013-06-18 15:52:00,74.0,49.0,-100.00,SE,128,5.0,12.0,42,0.00,,,0.00,1016.000000,,2013-06-18 20:52:00,
2013-06-18 16:02:00,74.0,49.0,-100.00,SE,128,5.0,12.0,42,0.00,,,0.00,1016.000000,,2013-06-18 21:02:00,
2013-06-18 16:33:00,75.0,51.0,-100.00,SE,130,4.0,12.0,43,0.00,,,0.00,904.000000,,2013-06-18 21:33:00,
2013-06-18 16:43:00,75.0,51.0,-100.00,SE,130,4.0,12.0,43,0.00,,,0.00,904.000000,,2013-06-18 21:43:00,
2013-06-18 16:52:00,75.0,51.0,-100.00,SE,130,4.0,12.0,43,0.00,,,0.00,904.000000,,2013-06-18 21:52:00,
2013-06-18 17:01:00,75.0,51.0,-100.00,SE,130,4.0,12.0,43,0.00,,,0.00,904.000000,,2013-06-18 22:01:00,
2013-06-18 17:34:00,74.0,48.0,-100.00,ESE,117,4.0,10.0,40,0.00,,,-99.99,678.000000,,2013-06-18 22:34:00,
2013-06-18 17:43:00,74.0,48.0,-100.00,ESE,117,4.0,10.0,40,0.00,,,-99.99,678.000000,,2013-06-18 22:43:00,
2013-06-18 17:53:00,74.0,48.0,-100.00,ESE,117,4.0,10.0,40,0.00,,,-99.99,678.000000,,2013-06-18 22:53:00,
2013-06-18 18:02:00,74.0,48.0,-100.00,ESE,117,4.0,10.0,40,0.00,,,-99.99,678.000000,,2013-06-18 23:02:00,
2013-06-18 18:39:00,75.0,50.0,-100.00,ESE,109,6.0,12.0,42,0.00,,,0.00,606.000000,,2013-06-18 23:39:00,
2013-06-18 18:48:00,75.0,50.0,-100.00,ESE,109,6.0,12.0,42,0.00,,,0.00,606.000000,,2013-06-18 23:48:00,
2013-06-18 19:01:00,75.0,50.0,-100.00,ESE,109,6.0,12.0,42,0.00,,,0.00,606.000000,,2013-06-19 00:01:00,
2013-06-18 19:33:00,74.0,49.0,-100.00,SE,146,5.0,10.0,41,0.00,,,0.00,389.000000,,2013-06-19 00:33:00,
2013-06-18 19:43:00,74.0,49.0,-100.00,SE,146,5.0,10.0,41,0.00,,,0.00,389.000000,,2013-06-19 00:43:00,
2013-06-18 19:53:00,74.0,49.0,-100.00,SE,146,5.0,10.0,41,0.00,,,0.00,389.000000,,2013-06-19 00:53:00,
2013-06-18 20:01:00,74.0,49.0,-100.00,SE,146,5.0,10.0,41,0.00,,,0.00,389.000000,,2013-06-19 01:01:00,
2013-06-18 20:32:00,73.0,51.0,-100.00,SE,144,5.0,6.0,46,0.00,,,-99.99,204.000000,,2013-06-19 01:32:00,
2013-06-18 20:43:00,73.0,51.0,-100.00,SE,144,5.0,6.0,46,0.00,,,-99.99,204.000000,,2013-06-19 01:43:00,
2013-06-18 20:53:00,73.0,51.0,-100.00,SE,144,5.0,6.0,46,0.00,,,-99.99,204.000000,,2013-06-19 01:53:00,
2013-06-18 21:01:00,73.0,51.0,-100.00,SE,144,5.0,6.0,46,0.00,,,-99.99,204.000000,,2013-06-19 02:01:00,
2013-06-18 21:32:00,69.0,52.0,-100.00,SE,132,3.0,7.0,55,0.00,,,0.00,51.000000,,2013-06-19 02:32:00,
2013-06-18 21:42:00,69.0,52.0,-100.00,SE,132,3.0,7.0,55,0.00,,,0.00,51.000000,,2013-06-19 02:42:00,
2013-06-18 21:52:00,69.0,52.0,-100.00,SE,132,3.0,7.0,55,0.00,,,0.00,51.000000,,2013-06-19 02:52:00,
2013-06-18 22:01:00,69.0,52.0,-100.00,SE,132,3.0,7.0,55,0.00,,,0.00,51.000000,,2013-06-19 03:01:00,
2013-06-18 22:33:00,62.0,53.0,-100.00,East,87,2.0,4.0,73,0.00,,,0.00,1.000000,,2013-06-19 03:33:00,
2013-06-18 22:43:00,62.0,53.0,-100.00,East,87,2.0,4.0,73,0.00,,,0.00,1.000000,,2013-06-19 03:43:00,
2013-06-18 22:52:00,62.0,53.0,-100.00,East,87,2.0,4.0,73,0.00,,,0.00,1.000000,,2013-06-19 03:52:00,
2013-06-18 23:01:00,62.0,53.0,-100.00,East,87,2.0,4.0,73,0.00,,,0.00,1.000000,,2013-06-19 04:01:00,
2013-06-18 23:33:00,57.0,54.0,-100.00,NNW,329,0.0,3.0,90,0.00,,,0.00,0.000000,,2013-06-19 04:33:00,
2013-06-18 23:43:00,57.0,54.0,-100.00,NNW,329,0.0,3.0,90,0.00,,,0.00,0.000000,,2013-06-19 04:43:00,
2013-06-18 23:53:00,57.0,54.0,-100.00,NNW,329,0.0,3.0,90,0.00,,,0.00,0.000000,,2013-06-19 04:53:00,